Year,Month,Day,Hour,Minute,Value (Times are PST for temperature in C)
2006,05,31,00,00,13.20
2006,05,31,00,01,13.20
2006,05,31,00,02,13.20
2006,05,31,00,03,13.20
2006,05,31,00,04,13.20
2006,05,31,00,05,13.20
2006,05,31,00,06,13.20
2006,05,31,00,07,13.20
2006,05,31,00,08,13.20
2006,05,31,00,09,13.20
2006,05,31,00,10,13.10
2006,05,31,00,11,13.10
2006,05,31,00,12,13.10
2006,05,31,00,13,13.10
2006,05,31,00,14,13.10
2006,05,31,00,15,13.10
2006,05,31,00,16,13.10
2006,05,31,00,17,13.10
2006,05,31,00,18,13.10
2006,05,31,00,19,13.10
2006,05,31,00,20,13.10
2006,05,31,00,21,13.10
2006,05,31,00,22,13.10
2006,05,31,00,23,13.10
2006,05,31,00,24,13.10
2006,05,31,00,25,13.10
2006,05,31,00,26,13.00
2006,05,31,00,27,13.00
2006,05,31,00,28,13.00
2006,05,31,00,29,13.00
2006,05,31,00,30,13.00
2006,05,31,00,31,13.00
2006,05,31,00,32,13.00
2006,05,31,00,33,13.00
2006,05,31,00,34,13.00
2006,05,31,00,35,13.00
2006,05,31,00,36,13.00
2006,05,31,00,37,13.00
2006,05,31,00,38,13.00
2006,05,31,00,39,13.00
2006,05,31,00,40,13.00
2006,05,31,00,41,13.00
2006,05,31,00,42,13.00
2006,05,31,00,43,13.00
2006,05,31,00,44,13.00
2006,05,31,00,45,13.00
2006,05,31,00,46,13.00
2006,05,31,00,47,13.00
2006,05,31,00,48,13.00
2006,05,31,00,49,13.00
2006,05,31,00,50,13.00
2006,05,31,00,51,13.00
2006,05,31,00,52,13.00
2006,05,31,00,53,13.00
2006,05,31,00,54,12.90
2006,05,31,00,55,12.90
2006,05,31,00,56,12.90
2006,05,31,00,57,12.90
2006,05,31,00,58,12.90
2006,05,31,00,59,12.90
2006,05,31,01,00,12.90
2006,05,31,01,01,12.90
2006,05,31,01,02,12.90
2006,05,31,01,03,12.90
2006,05,31,01,04,12.90
2006,05,31,01,05,12.90
2006,05,31,01,06,12.90
2006,05,31,01,07,12.90
2006,05,31,01,08,12.90
2006,05,31,01,09,12.90
2006,05,31,01,10,12.90
2006,05,31,01,11,12.90
2006,05,31,01,12,12.90
2006,05,31,01,13,12.90
2006,05,31,01,14,12.90
2006,05,31,01,15,12.80
2006,05,31,01,16,12.80
2006,05,31,01,17,12.80
2006,05,31,01,18,12.80
2006,05,31,01,19,12.80
2006,05,31,01,20,12.80
2006,05,31,01,21,12.80
2006,05,31,01,22,12.80
2006,05,31,01,23,12.80
2006,05,31,01,24,12.80
2006,05,31,01,25,12.70
2006,05,31,01,26,12.70
2006,05,31,01,27,12.70
2006,05,31,01,28,12.70
2006,05,31,01,29,12.60
2006,05,31,01,30,12.60
2006,05,31,01,31,12.60
2006,05,31,01,32,12.60
2006,05,31,01,33,12.50
2006,05,31,01,34,12.50
2006,05,31,01,35,12.50
2006,05,31,01,36,12.50
2006,05,31,01,37,12.40
2006,05,31,01,38,12.40
2006,05,31,01,39,12.30
2006,05,31,01,40,12.30
2006,05,31,01,41,12.30
2006,05,31,01,42,12.30
2006,05,31,01,43,12.30
2006,05,31,01,44,12.30
2006,05,31,01,45,12.20
2006,05,31,01,46,12.20
2006,05,31,01,47,12.20
2006,05,31,01,48,12.10
2006,05,31,01,49,12.10
2006,05,31,01,50,12.10
2006,05,31,01,51,12.00
2006,05,31,01,52,12.00
2006,05,31,01,53,12.00
2006,05,31,01,54,11.90
2006,05,31,01,55,11.90
2006,05,31,01,56,11.90
2006,05,31,01,57,11.90
2006,05,31,01,58,11.80
2006,05,31,01,59,11.80
2006,05,31,02,00,11.80
2006,05,31,02,01,11.80
2006,05,31,02,02,11.80
2006,05,31,02,03,11.80
2006,05,31,02,04,11.80
2006,05,31,02,05,11.70
2006,05,31,02,06,11.70
2006,05,31,02,07,11.70
2006,05,31,02,08,11.70
2006,05,31,02,09,11.60
2006,05,31,02,10,11.60
2006,05,31,02,11,11.60
2006,05,31,02,12,11.60
2006,05,31,02,13,11.60
2006,05,31,02,14,11.60
2006,05,31,02,15,11.60
2006,05,31,02,16,11.50
2006,05,31,02,17,11.40
2006,05,31,02,18,11.40
2006,05,31,02,19,11.40
2006,05,31,02,20,11.40
2006,05,31,02,21,11.40
2006,05,31,02,22,11.40
2006,05,31,02,23,11.40
2006,05,31,02,24,11.40
2006,05,31,02,25,11.40
2006,05,31,02,26,11.30
2006,05,31,02,27,11.30
2006,05,31,02,28,11.30
2006,05,31,02,29,11.30
2006,05,31,02,30,11.30
2006,05,31,02,31,11.30
2006,05,31,02,32,11.20
2006,05,31,02,33,11.20
2006,05,31,02,34,11.20
2006,05,31,02,35,11.20
2006,05,31,02,36,11.20
2006,05,31,02,37,11.20
2006,05,31,02,38,11.10
2006,05,31,02,39,11.10
2006,05,31,02,40,11.10
2006,05,31,02,41,11.10
2006,05,31,02,42,11.10
2006,05,31,02,43,11.10
2006,05,31,02,44,11.10
2006,05,31,02,45,11.10
2006,05,31,02,46,11.10
2006,05,31,02,47,11.10
2006,05,31,02,48,11.10
2006,05,31,02,49,11.00
2006,05,31,02,50,10.90
2006,05,31,02,51,10.90
2006,05,31,02,52,10.90
2006,05,31,02,53,10.90
2006,05,31,02,54,10.90
2006,05,31,02,55,10.90
2006,05,31,02,56,10.90
2006,05,31,02,57,10.90
2006,05,31,02,58,10.90
2006,05,31,02,59,10.90
2006,05,31,03,00,10.90
2006,05,31,03,01,10.90
2006,05,31,03,02,10.90
2006,05,31,03,03,10.80
2006,05,31,03,04,10.80
2006,05,31,03,05,10.80
2006,05,31,03,06,10.80
2006,05,31,03,07,10.80
2006,05,31,03,08,10.80
2006,05,31,03,09,10.80
2006,05,31,03,10,10.70
2006,05,31,03,11,10.70
2006,05,31,03,12,10.70
2006,05,31,03,13,10.70
2006,05,31,03,14,10.70
2006,05,31,03,15,10.70
2006,05,31,03,16,10.70
2006,05,31,03,17,10.70
2006,05,31,03,18,10.70
2006,05,31,03,19,10.60
2006,05,31,03,20,10.60
2006,05,31,03,21,10.60
2006,05,31,03,22,10.60
2006,05,31,03,23,10.60
2006,05,31,03,24,10.60
2006,05,31,03,25,10.60
2006,05,31,03,26,10.60
2006,05,31,03,27,10.60
2006,05,31,03,28,10.50
2006,05,31,03,29,10.40
2006,05,31,03,30,10.40
2006,05,31,03,31,10.40
2006,05,31,03,32,10.40
2006,05,31,03,33,10.40
2006,05,31,03,34,10.40
2006,05,31,03,35,10.40
2006,05,31,03,36,10.40
2006,05,31,03,37,10.30
2006,05,31,03,38,10.30
2006,05,31,03,39,10.30
2006,05,31,03,40,10.30
2006,05,31,03,41,10.30
2006,05,31,03,42,10.20
2006,05,31,03,43,10.20
2006,05,31,03,44,10.20
2006,05,31,03,45,10.20
2006,05,31,03,46,10.20
2006,05,31,03,47,10.20
2006,05,31,03,48,10.20
2006,05,31,03,49,10.20
2006,05,31,03,50,10.20
2006,05,31,03,51,10.10
2006,05,31,03,52,10.10
2006,05,31,03,53,10.10
2006,05,31,03,54,10.10
2006,05,31,03,55,10.10
2006,05,31,03,56,10.10
2006,05,31,03,57,10.10
2006,05,31,03,58,10.10
2006,05,31,03,59,10.10
2006,05,31,04,00,10.10
2006,05,31,04,01,10.10
2006,05,31,04,02,10.10
2006,05,31,04,03,10.10
2006,05,31,04,04,10.10
2006,05,31,04,05,10.10
2006,05,31,04,06,10.10
2006,05,31,04,07,10.10
2006,05,31,04,08,10.10
2006,05,31,04,09,10.10
2006,05,31,04,10,10.10
2006,05,31,04,11,10.10
2006,05,31,04,12,10.10
2006,05,31,04,13,10.10
2006,05,31,04,14,10.10
2006,05,31,04,15,10.10
2006,05,31,04,16,10.10
2006,05,31,04,17,10.10
2006,05,31,04,18,10.10
2006,05,31,04,19,10.10
2006,05,31,04,20,10.10
2006,05,31,04,21,10.10
2006,05,31,04,22,10.10
2006,05,31,04,23,10.10
2006,05,31,04,24,10.10
2006,05,31,04,25,10.00
2006,05,31,04,26,9.90
2006,05,31,04,27,9.90
2006,05,31,04,28,9.90
2006,05,31,04,29,9.90
2006,05,31,04,30,9.90
2006,05,31,04,31,9.90
2006,05,31,04,32,9.90
2006,05,31,04,33,9.90
2006,05,31,04,34,9.90
2006,05,31,04,35,9.90
2006,05,31,04,36,9.90
2006,05,31,04,37,9.90
2006,05,31,04,38,9.90
2006,05,31,04,39,9.90
2006,05,31,04,40,9.90
2006,05,31,04,41,9.90
2006,05,31,04,42,9.90
2006,05,31,04,43,9.90
2006,05,31,04,44,9.90
2006,05,31,04,45,9.90
2006,05,31,04,46,9.90
2006,05,31,04,47,9.90
2006,05,31,04,48,9.90
2006,05,31,04,49,9.90
2006,05,31,04,50,9.90
2006,05,31,04,51,9.90
2006,05,31,04,52,9.90
2006,05,31,04,53,9.90
2006,05,31,04,54,9.90
2006,05,31,04,55,9.90
2006,05,31,04,56,9.90
2006,05,31,04,57,9.90
2006,05,31,04,58,9.90
2006,05,31,04,59,9.90
2006,05,31,05,00,9.90
2006,05,31,05,01,9.90
2006,05,31,05,02,9.90
2006,05,31,05,03,9.90
2006,05,31,05,04,9.90
2006,05,31,05,05,9.90
2006,05,31,05,06,9.90
2006,05,31,05,07,9.90
2006,05,31,05,08,9.90
2006,05,31,05,09,9.90
2006,05,31,05,10,9.90
2006,05,31,05,11,9.90
2006,05,31,05,12,9.90
2006,05,31,05,13,9.90
2006,05,31,05,14,9.90
2006,05,31,05,15,9.90
2006,05,31,05,16,9.90
2006,05,31,05,17,9.90
2006,05,31,05,18,9.90
2006,05,31,05,19,9.90
2006,05,31,05,20,9.90
2006,05,31,05,21,9.90
2006,05,31,05,22,9.90
2006,05,31,05,23,9.90
2006,05,31,05,24,9.90
2006,05,31,05,25,9.90
2006,05,31,05,26,9.90
2006,05,31,05,27,9.90
2006,05,31,05,28,9.90
2006,05,31,05,29,9.90
2006,05,31,05,30,9.90
2006,05,31,05,31,9.90
2006,05,31,05,32,9.90
2006,05,31,05,33,9.90
2006,05,31,05,34,9.90
2006,05,31,05,35,9.90
2006,05,31,05,36,9.90
2006,05,31,05,37,9.90
2006,05,31,05,38,9.90
2006,05,31,05,39,9.90
2006,05,31,05,40,9.90
2006,05,31,05,41,9.90
2006,05,31,05,42,9.90
2006,05,31,05,43,9.90
2006,05,31,05,44,9.90
2006,05,31,05,45,9.90
2006,05,31,05,46,9.90
2006,05,31,05,47,10.00
2006,05,31,05,48,10.10
2006,05,31,05,49,10.10
2006,05,31,05,50,10.10
2006,05,31,05,51,10.10
2006,05,31,05,52,10.10
2006,05,31,05,53,10.10
2006,05,31,05,54,10.10
2006,05,31,05,55,10.10
2006,05,31,05,56,10.20
2006,05,31,05,57,10.20
2006,05,31,05,58,10.20
2006,05,31,05,59,10.20
2006,05,31,06,00,10.20
2006,05,31,06,01,10.20
2006,05,31,06,02,10.30
2006,05,31,06,03,10.30
2006,05,31,06,04,10.30
2006,05,31,06,05,10.40
2006,05,31,06,06,10.40
2006,05,31,06,07,10.40
2006,05,31,06,08,10.40
2006,05,31,06,09,10.40
2006,05,31,06,10,10.50
2006,05,31,06,11,10.60
2006,05,31,06,12,10.60
2006,05,31,06,13,10.60
2006,05,31,06,14,10.60
2006,05,31,06,15,10.70
2006,05,31,06,16,10.70
2006,05,31,06,17,10.80
2006,05,31,06,18,10.80
2006,05,31,06,19,10.90
2006,05,31,06,20,10.90
2006,05,31,06,21,11.00
2006,05,31,06,22,11.10
2006,05,31,06,23,11.10
2006,05,31,06,24,11.10
2006,05,31,06,25,11.20
2006,05,31,06,26,11.30
2006,05,31,06,27,11.30
2006,05,31,06,28,11.40
2006,05,31,06,29,11.40
2006,05,31,06,30,11.40
2006,05,31,06,31,11.40
2006,05,31,06,32,11.40
2006,05,31,06,33,11.60
2006,05,31,06,34,11.60
2006,05,31,06,35,11.60
2006,05,31,06,36,11.60
2006,05,31,06,37,11.60
2006,05,31,06,38,11.70
2006,05,31,06,39,11.70
2006,05,31,06,40,11.80
2006,05,31,06,41,11.80
2006,05,31,06,42,11.90
2006,05,31,06,43,11.90
2006,05,31,06,44,12.00
2006,05,31,06,45,12.00
2006,05,31,06,46,12.10
2006,05,31,06,47,12.10
2006,05,31,06,48,12.10
2006,05,31,06,49,12.20
2006,05,31,06,50,12.20
2006,05,31,06,51,12.20
2006,05,31,06,52,12.30
2006,05,31,06,53,12.30
2006,05,31,06,54,12.30
2006,05,31,06,55,12.30
2006,05,31,06,56,12.30
2006,05,31,06,57,12.30
2006,05,31,06,58,12.30
2006,05,31,06,59,12.40
2006,05,31,07,00,12.40
2006,05,31,07,01,12.40
2006,05,31,07,02,12.40
2006,05,31,07,03,12.40
2006,05,31,07,04,12.50
2006,05,31,07,05,12.50
2006,05,31,07,06,12.50
2006,05,31,07,07,12.50
2006,05,31,07,08,12.50
2006,05,31,07,09,12.60
2006,05,31,07,10,12.60
2006,05,31,07,11,12.60
2006,05,31,07,12,12.60
2006,05,31,07,13,12.60
2006,05,31,07,14,12.70
2006,05,31,07,15,12.70
2006,05,31,07,16,12.70
2006,05,31,07,17,12.80
2006,05,31,07,18,12.80
2006,05,31,07,19,12.80
2006,05,31,07,20,12.80
2006,05,31,07,21,12.80
2006,05,31,07,22,12.80
2006,05,31,07,23,12.90
2006,05,31,07,24,12.90
2006,05,31,07,25,12.90
2006,05,31,07,26,13.00
2006,05,31,07,27,13.00
2006,05,31,07,28,13.00
2006,05,31,07,29,13.10
2006,05,31,07,30,13.10
2006,05,31,07,31,13.10
2006,05,31,07,32,13.10
2006,05,31,07,33,13.20
2006,05,31,07,34,13.20
2006,05,31,07,35,13.20
2006,05,31,07,36,13.20
2006,05,31,07,37,13.20
2006,05,31,07,38,13.30
2006,05,31,07,39,13.30
2006,05,31,07,40,13.30
2006,05,31,07,41,13.30
2006,05,31,07,42,13.30
2006,05,31,07,43,13.30
2006,05,31,07,44,13.30
2006,05,31,07,45,13.30
2006,05,31,07,46,13.30
2006,05,31,07,47,13.40
2006,05,31,07,48,13.40
2006,05,31,07,49,13.40
2006,05,31,07,50,13.50
2006,05,31,07,51,13.50
2006,05,31,07,52,13.50
2006,05,31,07,53,13.60
2006,05,31,07,54,13.60
2006,05,31,07,55,13.60
2006,05,31,07,56,13.70
2006,05,31,07,57,13.70
2006,05,31,07,58,13.70
2006,05,31,07,59,13.70
2006,05,31,08,00,13.80
2006,05,31,08,01,13.80
2006,05,31,08,02,13.90
2006,05,31,08,03,13.90
2006,05,31,08,04,14.00
2006,05,31,08,05,14.00
2006,05,31,08,06,14.10
2006,05,31,08,07,14.10
2006,05,31,08,08,14.20
2006,05,31,08,09,14.20
2006,05,31,08,10,14.20
2006,05,31,08,11,14.20
2006,05,31,08,12,14.30
2006,05,31,08,13,14.30
2006,05,31,08,14,14.30
2006,05,31,08,15,14.40
2006,05,31,08,16,14.40
2006,05,31,08,17,14.50
2006,05,31,08,18,14.50
2006,05,31,08,19,14.60
2006,05,31,08,20,14.60
2006,05,31,08,21,14.60
2006,05,31,08,22,14.70
2006,05,31,08,23,14.70
2006,05,31,08,24,14.70
2006,05,31,08,25,14.80
2006,05,31,08,26,14.80
2006,05,31,08,27,14.80
2006,05,31,08,28,14.80
2006,05,31,08,29,14.80
2006,05,31,08,30,14.80
2006,05,31,08,31,14.80
2006,05,31,08,32,14.80
2006,05,31,08,33,14.80
2006,05,31,08,34,14.80
2006,05,31,08,35,14.80
2006,05,31,08,36,14.80
2006,05,31,08,37,14.80
2006,05,31,08,38,14.80
2006,05,31,08,39,14.80
2006,05,31,08,40,14.80
2006,05,31,08,41,14.90
2006,05,31,08,42,14.80
2006,05,31,08,43,14.80
2006,05,31,08,44,14.80
2006,05,31,08,45,14.80
2006,05,31,08,46,14.80
2006,05,31,08,47,14.80
2006,05,31,08,48,14.80
2006,05,31,08,49,14.80
2006,05,31,08,50,14.80
2006,05,31,08,51,14.80
2006,05,31,08,52,14.80
2006,05,31,08,53,14.80
2006,05,31,08,54,14.80
2006,05,31,08,55,14.90
2006,05,31,08,56,14.90
2006,05,31,08,57,14.90
2006,05,31,08,58,14.90
2006,05,31,08,59,14.90
2006,05,31,09,00,14.80
2006,05,31,09,01,14.80
2006,05,31,09,02,14.80
2006,05,31,09,03,14.80
2006,05,31,09,04,14.80
2006,05,31,09,05,14.80
2006,05,31,09,06,14.80
2006,05,31,09,07,14.80
2006,05,31,09,08,14.80
2006,05,31,09,09,14.80
2006,05,31,09,10,14.90
2006,05,31,09,11,14.90
2006,05,31,09,12,14.80
2006,05,31,09,13,14.90
2006,05,31,09,14,14.90
2006,05,31,09,15,14.90
2006,05,31,09,16,14.90
2006,05,31,09,17,14.90
2006,05,31,09,18,14.90
2006,05,31,09,19,14.90
2006,05,31,09,20,14.90
2006,05,31,09,21,14.80
2006,05,31,09,22,14.80
2006,05,31,09,23,14.80
2006,05,31,09,24,14.80
2006,05,31,09,25,14.80
2006,05,31,09,26,14.90
2006,05,31,09,27,14.90
2006,05,31,09,28,14.90
2006,05,31,09,29,14.90
2006,05,31,09,30,14.90
2006,05,31,09,31,14.90
2006,05,31,09,32,14.90
2006,05,31,09,33,14.90
2006,05,31,09,34,15.00
2006,05,31,09,35,15.00
2006,05,31,09,36,15.10
2006,05,31,09,37,15.10
2006,05,31,09,38,15.10
2006,05,31,09,39,15.00
2006,05,31,09,40,15.00
2006,05,31,09,41,15.00
2006,05,31,09,42,15.00
2006,05,31,09,43,15.10
2006,05,31,09,44,15.10
2006,05,31,09,45,15.10
2006,05,31,09,46,15.20
2006,05,31,09,47,15.20
2006,05,31,09,48,15.30
2006,05,31,09,49,15.30
2006,05,31,09,50,15.30
2006,05,31,09,51,15.30
2006,05,31,09,52,15.40
2006,05,31,09,53,15.40
2006,05,31,09,54,15.40
2006,05,31,09,55,15.50
2006,05,31,09,56,15.50
2006,05,31,09,57,15.50
2006,05,31,09,58,15.50
2006,05,31,09,59,15.50
2006,05,31,10,00,15.50
2006,05,31,10,01,15.50
2006,05,31,10,02,15.50
2006,05,31,10,03,15.60
2006,05,31,10,04,15.60
2006,05,31,10,05,15.60
2006,05,31,10,06,15.60
2006,05,31,10,07,15.60
2006,05,31,10,08,15.50
2006,05,31,10,09,15.50
2006,05,31,10,10,15.50
2006,05,31,10,11,15.40
2006,05,31,10,12,15.40
2006,05,31,10,13,15.40
2006,05,31,10,14,15.40
2006,05,31,10,15,15.50
2006,05,31,10,16,15.50
2006,05,31,10,17,15.50
2006,05,31,10,18,15.50
2006,05,31,10,19,15.60
2006,05,31,10,20,15.60
2006,05,31,10,21,15.60
2006,05,31,10,22,15.70
2006,05,31,10,23,15.70
2006,05,31,10,24,15.70
2006,05,31,10,25,15.70
2006,05,31,10,26,15.70
2006,05,31,10,27,15.60
2006,05,31,10,28,15.50
2006,05,31,10,29,15.50
2006,05,31,10,30,15.40
2006,05,31,10,31,15.50
2006,05,31,10,32,15.50
2006,05,31,10,33,15.50
2006,05,31,10,34,15.50
2006,05,31,10,35,15.50
2006,05,31,10,36,15.60
2006,05,31,10,37,15.60
2006,05,31,10,38,15.60
2006,05,31,10,39,15.70
2006,05,31,10,40,15.70
2006,05,31,10,41,15.70
2006,05,31,10,42,15.70
2006,05,31,10,43,15.70
2006,05,31,10,44,15.80
2006,05,31,10,45,15.80
2006,05,31,10,46,15.80
2006,05,31,10,47,15.90
2006,05,31,10,48,15.90
2006,05,31,10,49,16.00
2006,05,31,10,50,16.10
2006,05,31,10,51,16.10
2006,05,31,10,52,16.10
2006,05,31,10,53,16.10
2006,05,31,10,54,16.10
2006,05,31,10,55,16.20
2006,05,31,10,56,16.20
2006,05,31,10,57,16.20
2006,05,31,10,58,16.20
2006,05,31,10,59,16.20
2006,05,31,11,00,16.10
2006,05,31,11,01,16.10
2006,05,31,11,02,16.10
2006,05,31,11,03,16.10
2006,05,31,11,04,16.10
2006,05,31,11,05,16.10
2006,05,31,11,06,16.10
2006,05,31,11,07,16.10
2006,05,31,11,08,16.20
2006,05,31,11,09,16.20
2006,05,31,11,10,16.30
2006,05,31,11,11,16.40
2006,05,31,11,12,16.40
2006,05,31,11,13,16.40
2006,05,31,11,14,16.40
2006,05,31,11,15,16.40
2006,05,31,11,16,16.50
2006,05,31,11,17,16.60
2006,05,31,11,18,16.70
2006,05,31,11,19,16.70
2006,05,31,11,20,16.70
2006,05,31,11,21,16.70
2006,05,31,11,22,16.70
2006,05,31,11,23,16.70
2006,05,31,11,24,16.70
2006,05,31,11,25,16.70
2006,05,31,11,26,16.70
2006,05,31,11,27,16.70
2006,05,31,11,28,16.70
2006,05,31,11,29,16.60
2006,05,31,11,30,16.50
2006,05,31,11,31,16.40
2006,05,31,11,32,16.40
2006,05,31,11,33,16.40
2006,05,31,11,34,16.40
2006,05,31,11,35,16.40
2006,05,31,11,36,16.40
2006,05,31,11,37,16.40
2006,05,31,11,38,16.40
2006,05,31,11,39,16.50
2006,05,31,11,40,16.60
2006,05,31,11,41,16.70
2006,05,31,11,42,16.80
2006,05,31,11,43,16.90
2006,05,31,11,44,17.00
2006,05,31,11,45,16.90
2006,05,31,11,46,16.90
2006,05,31,11,47,16.90
2006,05,31,11,48,16.80
2006,05,31,11,49,16.70
2006,05,31,11,50,16.70
2006,05,31,11,51,16.70
2006,05,31,11,52,16.70
2006,05,31,11,53,16.70
2006,05,31,11,54,16.70
2006,05,31,11,55,16.70
2006,05,31,11,56,16.80
2006,05,31,11,57,16.80
2006,05,31,11,58,16.90
2006,05,31,11,59,17.00
2006,05,31,12,00,17.00
2006,05,31,12,01,17.10
2006,05,31,12,02,17.10
2006,05,31,12,03,17.10
2006,05,31,12,04,17.10
2006,05,31,12,05,17.10
2006,05,31,12,06,17.10
2006,05,31,12,07,17.00
2006,05,31,12,08,17.00
2006,05,31,12,09,17.00
2006,05,31,12,10,16.90
2006,05,31,12,11,16.90
2006,05,31,12,12,16.80
2006,05,31,12,13,16.80
2006,05,31,12,14,16.80
2006,05,31,12,15,16.80
2006,05,31,12,16,16.80
2006,05,31,12,17,16.80
2006,05,31,12,18,16.70
2006,05,31,12,19,16.70
2006,05,31,12,20,16.60
2006,05,31,12,21,16.50
2006,05,31,12,22,16.40
2006,05,31,12,23,16.40
2006,05,31,12,24,16.40
2006,05,31,12,25,16.40
2006,05,31,12,26,16.40
2006,05,31,12,27,16.30
2006,05,31,12,28,16.30
2006,05,31,12,29,16.30
2006,05,31,12,30,16.30
2006,05,31,12,31,16.30
2006,05,31,12,32,16.20
2006,05,31,12,33,16.30
2006,05,31,12,34,16.30
2006,05,31,12,35,16.30
2006,05,31,12,36,16.40
2006,05,31,12,37,16.40
2006,05,31,12,38,16.40
2006,05,31,12,39,16.50
2006,05,31,12,40,16.60
2006,05,31,12,41,16.60
2006,05,31,12,42,16.70
2006,05,31,12,43,16.70
2006,05,31,12,44,16.70
2006,05,31,12,45,16.70
2006,05,31,12,46,16.70
2006,05,31,12,47,16.80
2006,05,31,12,48,16.80
2006,05,31,12,49,16.90
2006,05,31,12,50,16.90
2006,05,31,12,51,17.00
2006,05,31,12,52,17.00
2006,05,31,12,53,17.00
2006,05,31,12,54,17.00
2006,05,31,12,55,17.00
2006,05,31,12,56,17.00
2006,05,31,12,57,17.00
2006,05,31,12,58,17.00
2006,05,31,12,59,17.00
2006,05,31,13,00,16.90
2006,05,31,13,01,16.90
2006,05,31,13,02,16.80
2006,05,31,13,03,16.80
2006,05,31,13,04,16.80
2006,05,31,13,05,16.70
2006,05,31,13,06,16.70
2006,05,31,13,07,16.70
2006,05,31,13,08,16.70
2006,05,31,13,09,16.70
2006,05,31,13,10,16.70
2006,05,31,13,11,16.70
2006,05,31,13,12,16.70
2006,05,31,13,13,16.70
2006,05,31,13,14,16.70
2006,05,31,13,15,16.70
2006,05,31,13,16,16.70
2006,05,31,13,17,16.70
2006,05,31,13,18,16.70
2006,05,31,13,19,16.70
2006,05,31,13,20,16.70
2006,05,31,13,21,16.70
2006,05,31,13,22,16.60
2006,05,31,13,23,16.50
2006,05,31,13,24,16.40
2006,05,31,13,25,16.30
2006,05,31,13,26,16.30
2006,05,31,13,27,16.20
2006,05,31,13,28,16.10
2006,05,31,13,29,16.10
2006,05,31,13,30,16.10
2006,05,31,13,31,16.10
2006,05,31,13,32,16.10
2006,05,31,13,33,16.10
2006,05,31,13,34,16.10
2006,05,31,13,35,16.10
2006,05,31,13,36,16.10
2006,05,31,13,37,16.10
2006,05,31,13,38,16.10
2006,05,31,13,39,16.10
2006,05,31,13,40,16.20
2006,05,31,13,41,16.20
2006,05,31,13,42,16.20
2006,05,31,13,43,16.30
2006,05,31,13,44,16.30
2006,05,31,13,45,16.30
2006,05,31,13,46,16.30
2006,05,31,13,47,16.30
2006,05,31,13,48,16.30
2006,05,31,13,49,16.30
2006,05,31,13,50,16.40
2006,05,31,13,51,16.40
2006,05,31,13,52,16.40
2006,05,31,13,53,16.50
2006,05,31,13,54,16.70
2006,05,31,13,55,16.70
2006,05,31,13,56,16.80
2006,05,31,13,57,16.90
2006,05,31,13,58,17.00
2006,05,31,13,59,17.10
2006,05,31,14,00,17.20
2006,05,31,14,01,17.30
2006,05,31,14,02,17.30
2006,05,31,14,03,17.40
2006,05,31,14,04,17.50
2006,05,31,14,05,17.50
2006,05,31,14,06,17.60
2006,05,31,14,07,17.70
2006,05,31,14,08,17.70
2006,05,31,14,09,17.80
2006,05,31,14,10,17.90
2006,05,31,14,11,17.90
2006,05,31,14,12,17.90
2006,05,31,14,13,17.90
2006,05,31,14,14,17.90
2006,05,31,14,15,17.90
2006,05,31,14,16,17.90
2006,05,31,14,17,17.90
2006,05,31,14,18,17.90
2006,05,31,14,19,17.90
2006,05,31,14,20,17.90
2006,05,31,14,21,17.90
2006,05,31,14,22,17.90
2006,05,31,14,23,17.80
2006,05,31,14,24,17.80
2006,05,31,14,25,17.70
2006,05,31,14,26,17.70
2006,05,31,14,27,17.60
2006,05,31,14,28,17.60
2006,05,31,14,29,17.50
2006,05,31,14,30,17.50
2006,05,31,14,31,17.40
2006,05,31,14,32,17.40
2006,05,31,14,33,17.40
2006,05,31,14,34,17.40
2006,05,31,14,35,17.40
2006,05,31,14,36,17.40
2006,05,31,14,37,17.40
2006,05,31,14,38,17.40
2006,05,31,14,39,17.30
2006,05,31,14,40,17.30
2006,05,31,14,41,17.30
2006,05,31,14,42,17.20
2006,05,31,14,43,17.20
2006,05,31,14,44,17.10
2006,05,31,14,45,17.10
2006,05,31,14,46,17.10
2006,05,31,14,47,17.10
2006,05,31,14,48,17.10
2006,05,31,14,49,17.10
2006,05,31,14,50,17.10
2006,05,31,14,51,17.10
2006,05,31,14,52,17.10
2006,05,31,14,53,17.10
2006,05,31,14,54,17.10
2006,05,31,14,55,17.10
2006,05,31,14,56,17.20
2006,05,31,14,57,17.20
2006,05,31,14,58,17.30
2006,05,31,14,59,17.30
2006,05,31,15,00,17.30
2006,05,31,15,01,17.30
2006,05,31,15,02,17.30
2006,05,31,15,03,17.30
2006,05,31,15,04,17.40
2006,05,31,15,05,17.40
2006,05,31,15,06,17.50
2006,05,31,15,07,17.50
2006,05,31,15,08,17.50
2006,05,31,15,09,17.50
2006,05,31,15,10,17.50
2006,05,31,15,11,17.60
2006,05,31,15,12,17.70
2006,05,31,15,13,17.80
2006,05,31,15,14,17.80
2006,05,31,15,15,17.90
2006,05,31,15,16,17.90
2006,05,31,15,17,17.90
2006,05,31,15,18,18.00
2006,05,31,15,19,18.10
2006,05,31,15,20,18.20
2006,05,31,15,21,18.20
2006,05,31,15,22,18.20
2006,05,31,15,23,18.30
2006,05,31,15,24,18.30
2006,05,31,15,25,18.30
2006,05,31,15,26,18.30
2006,05,31,15,27,18.30
2006,05,31,15,28,18.30
2006,05,31,15,29,18.30
2006,05,31,15,30,18.30
2006,05,31,15,31,18.30
2006,05,31,15,32,18.30
2006,05,31,15,33,18.30
2006,05,31,15,34,18.40
2006,05,31,15,35,18.40
2006,05,31,15,36,18.30
2006,05,31,15,37,18.30
2006,05,31,15,38,18.30
2006,05,31,15,39,18.20
2006,05,31,15,40,18.20
2006,05,31,15,41,18.20
2006,05,31,15,42,18.20
2006,05,31,15,43,18.20
2006,05,31,15,44,18.10
2006,05,31,15,45,18.10
2006,05,31,15,46,18.00
2006,05,31,15,47,17.90
2006,05,31,15,48,17.90
2006,05,31,15,49,17.90
2006,05,31,15,50,17.90
2006,05,31,15,51,17.80
2006,05,31,15,52,17.70
2006,05,31,15,53,17.70
2006,05,31,15,54,17.70
2006,05,31,15,55,17.70
2006,05,31,15,56,17.70
2006,05,31,15,57,17.70
2006,05,31,15,58,17.70
2006,05,31,15,59,17.70
2006,05,31,16,00,17.70
2006,05,31,16,01,17.60
2006,05,31,16,02,17.60
2006,05,31,16,03,17.60
2006,05,31,16,04,17.50
2006,05,31,16,05,17.50
2006,05,31,16,06,17.50
2006,05,31,16,07,17.50
2006,05,31,16,08,17.40
2006,05,31,16,09,17.40
2006,05,31,16,10,17.30
2006,05,31,16,11,17.30
2006,05,31,16,12,17.30
2006,05,31,16,13,17.30
2006,05,31,16,14,17.30
2006,05,31,16,15,17.30
2006,05,31,16,16,17.30
2006,05,31,16,17,17.30
2006,05,31,16,18,17.30
2006,05,31,16,19,17.30
2006,05,31,16,20,17.30
2006,05,31,16,21,17.30
2006,05,31,16,22,17.30
2006,05,31,16,23,17.30
2006,05,31,16,24,17.30
2006,05,31,16,25,17.30
2006,05,31,16,26,17.30
2006,05,31,16,27,17.30
2006,05,31,16,28,17.30
2006,05,31,16,29,17.30
2006,05,31,16,30,17.30
2006,05,31,16,31,17.30
2006,05,31,16,32,17.20
2006,05,31,16,33,17.20
2006,05,31,16,34,17.20
2006,05,31,16,35,17.10
2006,05,31,16,36,17.10
2006,05,31,16,37,17.10
2006,05,31,16,38,17.10
2006,05,31,16,39,17.00
2006,05,31,16,40,17.00
2006,05,31,16,41,17.00
2006,05,31,16,42,17.00
2006,05,31,16,43,17.00
2006,05,31,16,44,17.00
2006,05,31,16,45,17.10
2006,05,31,16,46,17.10
2006,05,31,16,47,17.10
2006,05,31,16,48,17.10
2006,05,31,16,49,17.10
2006,05,31,16,50,17.10
2006,05,31,16,51,17.10
2006,05,31,16,52,17.10
2006,05,31,16,53,17.10
2006,05,31,16,54,17.10
2006,05,31,16,55,17.10
2006,05,31,16,56,17.10
2006,05,31,16,57,17.10
2006,05,31,16,58,17.10
2006,05,31,16,59,17.00
2006,05,31,17,00,17.00
2006,05,31,17,01,17.00
2006,05,31,17,02,17.00
2006,05,31,17,03,17.00
2006,05,31,17,04,17.00
2006,05,31,17,05,17.00
2006,05,31,17,06,17.00
2006,05,31,17,07,17.00
2006,05,31,17,08,17.00
2006,05,31,17,09,17.10
2006,05,31,17,10,17.10
2006,05,31,17,11,17.10
2006,05,31,17,12,17.10
2006,05,31,17,13,17.10
2006,05,31,17,14,17.20
2006,05,31,17,15,17.20
2006,05,31,17,16,17.20
2006,05,31,17,17,17.20
2006,05,31,17,18,17.20
2006,05,31,17,19,17.20
2006,05,31,17,20,17.20
2006,05,31,17,21,17.20
2006,05,31,17,22,17.20